Content
SEND FEEDBACK

Daily
Averages
Monthly
Summary
United States of America

GREENFIELD, MASSACHUSETTS


Home > North America > United States > Massachusetts
Elevation: 190 feet     Latitude: 42 37N     Longitude: 072 33W

WEATHER
 
SELECT A DAY
Number of Records: 216,812;   Date Range: 7/1/96 - 11/25/14
 
SHARE

PRINT THIS DATA

[ ← Previous Day ]
WEATHER ALMANAC - MARCH 11, 2014
[ Next Day → ]
[ °C ]   °F
Weather ElementAverageHighLow
Temperature39.2 °F52 °F (2:52 pm)26.1 °F (6:52 am)
Dewpoint26.2 °F30.9 °F (9:52 am)24.1 °F (7:25 am)
Humidity64 %96 % (6:52 am)34 % (3:52 pm)
Barometer29.60 in29.73 in (10:52 pm)29.51 in (3:52 am)
Wind Speed6.4 mph18.4 mph (3:52 pm)
Wind Gust25.3 mph (1:52 pm)
Weather ElementAverage
Visibility8.4 mi
Wind DirectionSE (134.2 °)

Weather ElementTotal
Precipitation---
Heating Degree Days26 (Base 65)
Averaged from 24 records on March 11, 2014
WEATHER CONDITIONS BREAKOUT
WIND DIRECTION BREAKOUT
WEATHER BY HOUR - MARCH 11, 2014
[ °C ]   °F
Local TimeTemperatureDewpointHumidityBarometerVisibilityWind DirectionWind SpeedGust SpeedPrecipitationEventsConditions
1:52 AM37.0 °F27.0 °F67 %29.55 in9.0 miSouth (190°)15.0 mphOvercast
2:52 AM37.0 °F27.0 °F67 %29.54 in9.0 miSE (140°)4.6 mphOvercast
3:52 AM36.0 °F28.0 °F73 %29.51 in9.0 miSSE (160°)5.8 mphClear
4:52 AM30.0 °F26.1 °F85 %29.52 in7.0 miCalmClear
5:52 AM28.0 °F25.0 °F88 %29.52 in6.0 miCalmClear
6:52 AM26.1 °F25.0 °F96 %29.53 in5.0 miCalmClear
7:25 AM26.1 °F24.1 °F92 %29.53 in2.5 miCalmClear
7:52 AM26.1 °F24.1 °F92 %29.56 in3.0 miCalmClear
8:52 AM30.0 °F27.0 °F88 %29.57 in4.0 miCalmClear
9:52 AM41.0 °F30.9 °F67 %29.58 in8.0 miVariable3.5 mphPartly Cloudy
10:52 AM45.0 °F30.0 °F56 %29.58 in9.0 miWSW (240°)17.3 mph21.9 mphPartly Cloudy
11:52 AM48.0 °F28.9 °F48 %29.58 in10.0 miWest (260°)13.8 mph21.9 mphClear
12:52 PM48.9 °F28.0 °F44 %29.58 in10.0 miWest (270°)12.7 mphClear
1:52 PM51.1 °F25.0 °F36 %29.57 in10.0 miWest (270°)12.7 mph25.3 mphClear
2:52 PM52.0 °F25.0 °F35 %29.58 in10.0 miWNW (300°)15.0 mph24.2 mphClear
3:52 PM52.0 °F24.1 °F34 %29.58 in10.0 miWNW (290°)18.4 mph24.2 mphClear
4:52 PM52.0 °F24.1 °F34 %29.60 in10.0 miWNW (290°)12.7 mphClear
5:52 PM51.1 °F25.0 °F36 %29.61 in10.0 miWNW (290°)9.2 mphClear
6:52 PM48.9 °F24.1 °F38 %29.65 in10.0 miWest (260°)5.8 mphClear
7:52 PM43.0 °F25.0 °F49 %29.69 in10.0 miWest (260°)6.9 mphClear
8:52 PM35.1 °F26.1 °F70 %29.71 in10.0 miCalmClear
9:52 PM32.0 °F26.1 °F79 %29.72 in10.0 miCalmClear
10:52 PM32.0 °F26.1 °F79 %29.73 in10.0 miCalmOvercast
11:52 PM33.1 °F28.0 °F82 %29.71 in10.0 miCalmOvercast
Hourly data recorded from KORE, located miles away from Greenfield, Massachusetts







STORIES FROM OUR PARTNERS